Year,Month,Day,Hour,Minute,Value (Times are PST for temperature in C)
2017,04,02,00,00,8.20
2017,04,02,00,01,8.10
2017,04,02,00,02,8.10
2017,04,02,00,03,8.10
2017,04,02,00,04,8.00
2017,04,02,00,05,7.90
2017,04,02,00,06,7.90
2017,04,02,00,07,7.90
2017,04,02,00,08,7.90
2017,04,02,00,09,7.90
2017,04,02,00,10,7.90
2017,04,02,00,11,7.90
2017,04,02,00,12,7.90
2017,04,02,00,13,7.80
2017,04,02,00,14,7.80
2017,04,02,00,15,7.80
2017,04,02,00,16,7.80
2017,04,02,00,17,7.80
2017,04,02,00,18,7.90
2017,04,02,00,19,7.90
2017,04,02,00,20,7.90
2017,04,02,00,21,7.90
2017,04,02,00,22,7.90
2017,04,02,00,23,7.90
2017,04,02,00,24,7.90
2017,04,02,00,25,7.90
2017,04,02,00,26,7.90
2017,04,02,00,27,7.90
2017,04,02,00,28,7.90
2017,04,02,00,29,7.80
2017,04,02,00,30,7.80
2017,04,02,00,31,7.70
2017,04,02,00,32,7.60
2017,04,02,00,33,7.60
2017,04,02,00,34,7.50
2017,04,02,00,35,7.40
2017,04,02,00,36,7.40
2017,04,02,00,37,7.30
2017,04,02,00,38,7.30
2017,04,02,00,39,7.30
2017,04,02,00,40,7.30
2017,04,02,00,41,7.30
2017,04,02,00,42,7.30
2017,04,02,00,43,7.40
2017,04,02,00,44,7.40
2017,04,02,00,45,7.40
2017,04,02,00,46,7.40
2017,04,02,00,47,7.40
2017,04,02,00,48,7.50
2017,04,02,00,49,7.60
2017,04,02,00,50,7.60
2017,04,02,00,51,7.60
2017,04,02,00,52,7.60
2017,04,02,00,53,7.60
2017,04,02,00,54,7.50
2017,04,02,00,55,7.40
2017,04,02,00,56,7.40
2017,04,02,00,57,7.40
2017,04,02,00,58,7.40
2017,04,02,00,59,7.50
2017,04,02,01,00,7.50
2017,04,02,01,01,7.50
2017,04,02,01,02,7.50
2017,04,02,01,03,7.50
2017,04,02,01,04,7.50
2017,04,02,01,05,7.50
2017,04,02,01,06,7.50
2017,04,02,01,07,7.40
2017,04,02,01,08,7.40
2017,04,02,01,09,7.50
2017,04,02,01,10,7.50
2017,04,02,01,11,7.40
2017,04,02,01,12,7.40
2017,04,02,01,13,7.30
2017,04,02,01,14,7.30
2017,04,02,01,15,7.30
2017,04,02,01,16,7.30
2017,04,02,01,17,7.30
2017,04,02,01,18,7.30
2017,04,02,01,19,7.20
2017,04,02,01,20,7.30
2017,04,02,01,21,7.30
2017,04,02,01,22,7.30
2017,04,02,01,23,7.30
2017,04,02,01,24,7.40
2017,04,02,01,25,7.40
2017,04,02,01,26,7.50
2017,04,02,01,27,7.60
2017,04,02,01,28,7.60
2017,04,02,01,29,7.60
2017,04,02,01,30,7.60
2017,04,02,01,31,7.60
2017,04,02,01,32,7.60
2017,04,02,01,33,7.60
2017,04,02,01,34,7.50
2017,04,02,01,35,7.40
2017,04,02,01,36,7.40
2017,04,02,01,37,7.40
2017,04,02,01,38,7.40
2017,04,02,01,39,7.40
2017,04,02,01,40,7.50
2017,04,02,01,41,7.50
2017,04,02,01,42,7.60
2017,04,02,01,43,7.60
2017,04,02,01,44,7.60
2017,04,02,01,45,7.60
2017,04,02,01,46,7.60
2017,04,02,01,47,7.60
2017,04,02,01,48,7.50
2017,04,02,01,49,7.50
2017,04,02,01,50,7.50
2017,04,02,01,51,7.40
2017,04,02,01,52,7.40
2017,04,02,01,53,7.40
2017,04,02,01,54,7.40
2017,04,02,01,55,7.40
2017,04,02,01,56,7.40
2017,04,02,01,57,7.50
2017,04,02,01,58,7.50
2017,04,02,01,59,7.50
2017,04,02,02,00,7.50
2017,04,02,02,01,7.50
2017,04,02,02,02,7.50
2017,04,02,02,03,7.40
2017,04,02,02,04,7.40
2017,04,02,02,05,7.40
2017,04,02,02,06,7.40
2017,04,02,02,07,7.40
2017,04,02,02,08,7.40
2017,04,02,02,09,7.30
2017,04,02,02,10,7.30
2017,04,02,02,11,7.30
2017,04,02,02,12,7.30
2017,04,02,02,13,7.30
2017,04,02,02,14,7.30
2017,04,02,02,15,7.40
2017,04,02,02,16,7.40
2017,04,02,02,17,7.40
2017,04,02,02,18,7.40
2017,04,02,02,19,7.40
2017,04,02,02,20,7.40
2017,04,02,02,21,7.30
2017,04,02,02,22,7.30
2017,04,02,02,23,7.20
2017,04,02,02,24,7.20
2017,04,02,02,25,7.10
2017,04,02,02,26,7.10
2017,04,02,02,27,7.10
2017,04,02,02,28,7.00
2017,04,02,02,29,7.00
2017,04,02,02,30,6.90
2017,04,02,02,31,6.90
2017,04,02,02,32,6.90
2017,04,02,02,33,6.90
2017,04,02,02,34,6.80
2017,04,02,02,35,6.80
2017,04,02,02,36,6.80
2017,04,02,02,37,6.80
2017,04,02,02,38,6.70
2017,04,02,02,39,6.70
2017,04,02,02,40,6.70
2017,04,02,02,41,6.70
2017,04,02,02,42,6.60
2017,04,02,02,43,6.60
2017,04,02,02,44,6.60
2017,04,02,02,45,6.50
2017,04,02,02,46,6.50
2017,04,02,02,47,6.40
2017,04,02,02,48,6.40
2017,04,02,02,49,6.40
2017,04,02,02,50,6.30
2017,04,02,02,51,6.30
2017,04,02,02,52,6.30
2017,04,02,02,53,6.20
2017,04,02,02,54,6.20
2017,04,02,02,55,6.10
2017,04,02,02,56,6.10
2017,04,02,02,57,6.00
2017,04,02,02,58,6.00
2017,04,02,02,59,6.00
2017,04,02,03,00,5.90
2017,04,02,03,01,5.90
2017,04,02,03,02,5.90
2017,04,02,03,03,5.90
2017,04,02,03,04,5.90
2017,04,02,03,05,5.90
2017,04,02,03,06,5.90
2017,04,02,03,07,5.90
2017,04,02,03,08,5.90
2017,04,02,03,09,5.90
2017,04,02,03,10,5.90
2017,04,02,03,11,5.80
2017,04,02,03,12,5.80
2017,04,02,03,13,5.90
2017,04,02,03,14,5.90
2017,04,02,03,15,5.90
2017,04,02,03,16,5.90
2017,04,02,03,17,5.90
2017,04,02,03,18,6.00
2017,04,02,03,19,6.00
2017,04,02,03,20,6.10
2017,04,02,03,21,6.10
2017,04,02,03,22,6.20
2017,04,02,03,23,6.20
2017,04,02,03,24,6.20
2017,04,02,03,25,6.20
2017,04,02,03,26,6.20
2017,04,02,03,27,6.20
2017,04,02,03,28,6.20
2017,04,02,03,29,6.10
2017,04,02,03,30,6.10
2017,04,02,03,31,6.10
2017,04,02,03,32,6.00
2017,04,02,03,33,6.00
2017,04,02,03,34,5.90
2017,04,02,03,35,5.90
2017,04,02,03,36,5.80
2017,04,02,03,37,5.80
2017,04,02,03,38,5.80
2017,04,02,03,39,5.80
2017,04,02,03,40,5.80
2017,04,02,03,41,5.90
2017,04,02,03,42,5.90
2017,04,02,03,43,5.80
2017,04,02,03,44,5.90
2017,04,02,03,45,5.90
2017,04,02,03,46,5.90
2017,04,02,03,47,5.90
2017,04,02,03,48,5.90
2017,04,02,03,49,5.90
2017,04,02,03,50,5.90
2017,04,02,03,51,5.90
2017,04,02,03,52,5.90
2017,04,02,03,53,5.90
2017,04,02,03,54,5.90
2017,04,02,03,55,5.90
2017,04,02,03,56,5.90
2017,04,02,03,57,5.90
2017,04,02,03,58,5.90
2017,04,02,03,59,6.00
2017,04,02,04,00,6.00
2017,04,02,04,01,6.00
2017,04,02,04,02,6.00
2017,04,02,04,03,6.00
2017,04,02,04,04,6.00
2017,04,02,04,05,6.00
2017,04,02,04,06,6.00
2017,04,02,04,07,6.00
2017,04,02,04,08,5.90
2017,04,02,04,09,5.90
2017,04,02,04,10,5.90
2017,04,02,04,11,6.00
2017,04,02,04,12,6.00
2017,04,02,04,13,6.10
2017,04,02,04,14,6.10
2017,04,02,04,15,6.10
2017,04,02,04,16,6.10
2017,04,02,04,17,6.10
2017,04,02,04,18,6.00
2017,04,02,04,19,6.00
2017,04,02,04,20,6.00
2017,04,02,04,21,5.90
2017,04,02,04,22,5.90
2017,04,02,04,23,5.80
2017,04,02,04,24,5.70
2017,04,02,04,25,5.60
2017,04,02,04,26,5.50
2017,04,02,04,27,5.50
2017,04,02,04,28,5.60
2017,04,02,04,29,5.60
2017,04,02,04,30,5.70
2017,04,02,04,31,5.80
2017,04,02,04,32,5.90
2017,04,02,04,33,6.00
2017,04,02,04,34,6.10
2017,04,02,04,35,6.20
2017,04,02,04,36,6.40
2017,04,02,04,37,6.50
2017,04,02,04,38,6.60
2017,04,02,04,39,6.60
2017,04,02,04,40,6.60
2017,04,02,04,41,6.60
2017,04,02,04,42,6.60
2017,04,02,04,43,6.60
2017,04,02,04,44,6.60
2017,04,02,04,45,6.60
2017,04,02,04,46,6.60
2017,04,02,04,47,6.70
2017,04,02,04,48,6.70
2017,04,02,04,49,6.70
2017,04,02,04,50,6.70
2017,04,02,04,51,6.70
2017,04,02,04,52,6.80
2017,04,02,04,53,6.80
2017,04,02,04,54,6.80
2017,04,02,04,55,6.80
2017,04,02,04,56,6.80
2017,04,02,04,57,6.80
2017,04,02,04,58,6.80
2017,04,02,04,59,6.80
2017,04,02,05,00,6.80
2017,04,02,05,01,6.80
2017,04,02,05,02,6.90
2017,04,02,05,03,6.90
2017,04,02,05,04,6.90
2017,04,02,05,05,6.90
2017,04,02,05,06,7.00
2017,04,02,05,07,6.90
2017,04,02,05,08,6.90
2017,04,02,05,09,6.90
2017,04,02,05,10,6.90
2017,04,02,05,11,6.90
2017,04,02,05,12,6.80
2017,04,02,05,13,6.80
2017,04,02,05,14,6.80
2017,04,02,05,15,6.80
2017,04,02,05,16,6.80
2017,04,02,05,17,6.70
2017,04,02,05,18,6.80
2017,04,02,05,19,6.70
2017,04,02,05,20,6.70
2017,04,02,05,21,6.70
2017,04,02,05,22,6.60
2017,04,02,05,23,6.60
2017,04,02,05,24,6.50
2017,04,02,05,25,6.40
2017,04,02,05,26,6.40
2017,04,02,05,27,6.30
2017,04,02,05,28,6.20
2017,04,02,05,29,6.10
2017,04,02,05,30,6.00
2017,04,02,05,31,6.00
2017,04,02,05,32,5.90
2017,04,02,05,33,5.80
2017,04,02,05,34,5.80
2017,04,02,05,35,5.70
2017,04,02,05,36,5.60
2017,04,02,05,37,5.60
2017,04,02,05,38,5.50
2017,04,02,05,39,5.50
2017,04,02,05,40,5.40
2017,04,02,05,41,5.40
2017,04,02,05,42,5.30
2017,04,02,05,43,5.30
2017,04,02,05,44,5.30
2017,04,02,05,45,5.20
2017,04,02,05,46,5.20
2017,04,02,05,47,5.20
2017,04,02,05,48,5.20
2017,04,02,05,49,5.20
2017,04,02,05,50,5.10
2017,04,02,05,51,5.10
2017,04,02,05,52,5.00
2017,04,02,05,53,5.00
2017,04,02,05,54,4.90
2017,04,02,05,55,4.80
2017,04,02,05,56,4.80
2017,04,02,05,57,4.70
2017,04,02,05,58,4.70
2017,04,02,05,59,4.70
2017,04,02,06,00,4.60
2017,04,02,06,01,4.60
2017,04,02,06,02,4.60
2017,04,02,06,03,4.60
2017,04,02,06,04,4.60
2017,04,02,06,05,4.60
2017,04,02,06,06,4.60
2017,04,02,06,07,4.60
2017,04,02,06,08,4.50
2017,04,02,06,09,4.50
2017,04,02,06,10,4.50
2017,04,02,06,11,4.40
2017,04,02,06,12,4.40
2017,04,02,06,13,4.40
2017,04,02,06,14,4.40
2017,04,02,06,15,4.40
2017,04,02,06,16,4.40
2017,04,02,06,17,4.30
2017,04,02,06,18,4.30
2017,04,02,06,19,4.20
2017,04,02,06,20,4.20
2017,04,02,06,21,4.10
2017,04,02,06,22,4.10
2017,04,02,06,23,4.10
2017,04,02,06,24,4.10
2017,04,02,06,25,4.10
2017,04,02,06,26,4.10
2017,04,02,06,27,4.00
2017,04,02,06,28,4.00
2017,04,02,06,29,3.90
2017,04,02,06,30,3.90
2017,04,02,06,31,3.90
2017,04,02,06,32,3.90
2017,04,02,06,33,3.80
2017,04,02,06,34,3.70
2017,04,02,06,35,3.70
2017,04,02,06,36,3.60
2017,04,02,06,37,3.70
2017,04,02,06,38,3.70
2017,04,02,06,39,3.70
2017,04,02,06,40,3.80
2017,04,02,06,41,3.80
2017,04,02,06,42,3.90
2017,04,02,06,43,4.00
2017,04,02,06,44,4.00
2017,04,02,06,45,3.90
2017,04,02,06,46,3.90
2017,04,02,06,47,3.90
2017,04,02,06,48,3.90
2017,04,02,06,49,3.90
2017,04,02,06,50,3.80
2017,04,02,06,51,3.80
2017,04,02,06,52,3.70
2017,04,02,06,53,3.60
2017,04,02,06,54,3.60
2017,04,02,06,55,3.50
2017,04,02,06,56,3.50
2017,04,02,06,57,3.50
2017,04,02,06,58,3.60
2017,04,02,06,59,3.60
2017,04,02,07,00,3.70
2017,04,02,07,01,3.70
2017,04,02,07,02,3.80
2017,04,02,07,03,3.80
2017,04,02,07,04,3.80
2017,04,02,07,05,3.80
2017,04,02,07,06,3.80
2017,04,02,07,07,3.90
2017,04,02,07,08,3.90
2017,04,02,07,09,3.90
2017,04,02,07,10,3.90
2017,04,02,07,11,3.90
2017,04,02,07,12,4.00
2017,04,02,07,13,4.10
2017,04,02,07,14,4.10
2017,04,02,07,15,4.20
2017,04,02,07,16,4.20
2017,04,02,07,17,4.20
2017,04,02,07,18,4.20
2017,04,02,07,19,4.30
2017,04,02,07,20,4.30
2017,04,02,07,21,4.30
2017,04,02,07,22,4.30
2017,04,02,07,23,4.40
2017,04,02,07,24,4.50
2017,04,02,07,25,4.60
2017,04,02,07,26,4.70
2017,04,02,07,27,4.80
2017,04,02,07,28,4.90
2017,04,02,07,29,4.90
2017,04,02,07,30,5.00
2017,04,02,07,31,5.00
2017,04,02,07,32,5.00
2017,04,02,07,33,5.10
2017,04,02,07,34,5.20
2017,04,02,07,35,5.30
2017,04,02,07,36,5.30
2017,04,02,07,37,5.40
2017,04,02,07,38,5.50
2017,04,02,07,39,5.50
2017,04,02,07,40,5.60
2017,04,02,07,41,5.60
2017,04,02,07,42,5.70
2017,04,02,07,43,5.70
2017,04,02,07,44,5.70
2017,04,02,07,45,5.80
2017,04,02,07,46,5.80
2017,04,02,07,47,5.80
2017,04,02,07,48,5.80
2017,04,02,07,49,5.90
2017,04,02,07,50,5.90
2017,04,02,07,51,5.90
2017,04,02,07,52,5.90
2017,04,02,07,53,6.00
2017,04,02,07,54,6.10
2017,04,02,07,55,6.10
2017,04,02,07,56,6.10
2017,04,02,07,57,6.20
2017,04,02,07,58,6.20
2017,04,02,07,59,6.30
2017,04,02,08,00,6.30
2017,04,02,08,01,6.30
2017,04,02,08,02,6.40
2017,04,02,08,03,6.40
2017,04,02,08,04,6.50
2017,04,02,08,05,6.50
2017,04,02,08,06,6.60
2017,04,02,08,07,6.60
2017,04,02,08,08,6.60
2017,04,02,08,09,6.70
2017,04,02,08,10,6.70
2017,04,02,08,11,6.70
2017,04,02,08,12,6.80
2017,04,02,08,13,6.80
2017,04,02,08,14,6.80
2017,04,02,08,15,6.80
2017,04,02,08,16,6.80
2017,04,02,08,17,6.90
2017,04,02,08,18,6.90
2017,04,02,08,19,6.90
2017,04,02,08,20,6.90
2017,04,02,08,21,6.90
2017,04,02,08,22,7.00
2017,04,02,08,23,7.00
2017,04,02,08,24,7.00
2017,04,02,08,25,7.10
2017,04,02,08,26,7.10
2017,04,02,08,27,7.10
2017,04,02,08,28,7.10
2017,04,02,08,29,7.10
2017,04,02,08,30,7.20
2017,04,02,08,31,7.20
2017,04,02,08,32,7.20
2017,04,02,08,33,7.20
2017,04,02,08,34,7.30
2017,04,02,08,35,7.30
2017,04,02,08,36,7.30
2017,04,02,08,37,7.40
2017,04,02,08,38,7.40
2017,04,02,08,39,7.40
2017,04,02,08,40,7.40
2017,04,02,08,41,7.50
2017,04,02,08,42,7.50
2017,04,02,08,43,7.60
2017,04,02,08,44,7.60
2017,04,02,08,45,7.70
2017,04,02,08,46,7.70
2017,04,02,08,47,7.70
2017,04,02,08,48,7.80
2017,04,02,08,49,7.80
2017,04,02,08,50,7.80
2017,04,02,08,51,7.80
2017,04,02,08,52,7.80
2017,04,02,08,53,7.80
2017,04,02,08,54,7.80
2017,04,02,08,55,7.90
2017,04,02,08,56,8.00
2017,04,02,08,57,8.00
2017,04,02,08,58,8.10
2017,04,02,08,59,8.10
2017,04,02,09,00,8.10
2017,04,02,09,01,8.10
2017,04,02,09,02,8.10
2017,04,02,09,03,8.10
2017,04,02,09,04,8.10
2017,04,02,09,05,8.10
2017,04,02,09,06,8.10
2017,04,02,09,07,8.10
2017,04,02,09,08,8.10
2017,04,02,09,09,8.10
2017,04,02,09,10,8.10
2017,04,02,09,11,8.10
2017,04,02,09,12,8.10
2017,04,02,09,13,8.10
2017,04,02,09,14,8.20
2017,04,02,09,15,8.20
2017,04,02,09,16,8.20
2017,04,02,09,17,8.30
2017,04,02,09,18,8.30
2017,04,02,09,19,8.30
2017,04,02,09,20,8.30
2017,04,02,09,21,8.30
2017,04,02,09,22,8.30
2017,04,02,09,23,8.30
2017,04,02,09,24,8.40
2017,04,02,09,25,8.40
2017,04,02,09,26,8.40
2017,04,02,09,27,8.50
2017,04,02,09,28,8.50
2017,04,02,09,29,8.50
2017,04,02,09,30,8.40
2017,04,02,09,31,8.40
2017,04,02,09,32,8.40
2017,04,02,09,33,8.50
2017,04,02,09,34,8.50
2017,04,02,09,35,8.60
2017,04,02,09,36,8.60
2017,04,02,09,37,8.60
2017,04,02,09,38,8.60
2017,04,02,09,39,8.60
2017,04,02,09,40,8.60
2017,04,02,09,41,8.60
2017,04,02,09,42,8.60
2017,04,02,09,43,8.60
2017,04,02,09,44,8.70
2017,04,02,09,45,8.70
2017,04,02,09,46,8.70
2017,04,02,09,47,8.70
2017,04,02,09,48,8.70
2017,04,02,09,49,8.80
2017,04,02,09,50,8.80
2017,04,02,09,51,8.80
2017,04,02,09,52,8.80
2017,04,02,09,53,8.90
2017,04,02,09,54,8.90
2017,04,02,09,55,9.00
2017,04,02,09,56,9.10
2017,04,02,09,57,9.10
2017,04,02,09,58,9.20
2017,04,02,09,59,9.10
2017,04,02,10,00,9.20
2017,04,02,10,01,9.20
2017,04,02,10,02,9.20
2017,04,02,10,03,9.20
2017,04,02,10,04,9.10
2017,04,02,10,05,9.10
2017,04,02,10,06,9.10
2017,04,02,10,07,9.10
2017,04,02,10,08,9.10
2017,04,02,10,09,9.20
2017,04,02,10,10,9.20
2017,04,02,10,11,9.30
2017,04,02,10,12,9.30
2017,04,02,10,13,9.30
2017,04,02,10,14,9.30
2017,04,02,10,15,9.50
2017,04,02,10,16,9.60
2017,04,02,10,17,9.70
2017,04,02,10,18,9.80
2017,04,02,10,19,9.80
2017,04,02,10,20,9.70
2017,04,02,10,21,9.70
2017,04,02,10,22,9.70
2017,04,02,10,23,9.70
2017,04,02,10,24,9.80
2017,04,02,10,25,9.80
2017,04,02,10,26,9.90
2017,04,02,10,27,9.90
2017,04,02,10,28,9.90
2017,04,02,10,29,9.90
2017,04,02,10,30,10.00
2017,04,02,10,31,10.10
2017,04,02,10,32,10.20
2017,04,02,10,33,10.20
2017,04,02,10,34,10.10
2017,04,02,10,35,10.00
2017,04,02,10,36,9.90
2017,04,02,10,37,9.80
2017,04,02,10,38,9.80
2017,04,02,10,39,9.70
2017,04,02,10,40,9.70
2017,04,02,10,41,9.70
2017,04,02,10,42,9.70
2017,04,02,10,43,9.70
2017,04,02,10,44,9.80
2017,04,02,10,45,9.80
2017,04,02,10,46,9.90
2017,04,02,10,47,10.00
2017,04,02,10,48,10.10
2017,04,02,10,49,10.20
2017,04,02,10,50,10.20
2017,04,02,10,51,10.20
2017,04,02,10,52,10.10
2017,04,02,10,53,10.10
2017,04,02,10,54,10.00
2017,04,02,10,55,10.00
2017,04,02,10,56,9.90
2017,04,02,10,57,9.90
2017,04,02,10,58,10.00
2017,04,02,10,59,10.00
2017,04,02,11,00,10.00
2017,04,02,11,01,10.10
2017,04,02,11,02,10.20
2017,04,02,11,03,10.20
2017,04,02,11,04,10.30
2017,04,02,11,05,10.30
2017,04,02,11,06,10.30
2017,04,02,11,07,10.30
2017,04,02,11,08,10.20
2017,04,02,11,09,10.10
2017,04,02,11,10,9.90
2017,04,02,11,11,9.80
2017,04,02,11,12,9.80
2017,04,02,11,13,9.80
2017,04,02,11,14,9.70
2017,04,02,11,15,9.70
2017,04,02,11,16,9.70
2017,04,02,11,17,9.70
2017,04,02,11,18,9.70
2017,04,02,11,19,9.70
2017,04,02,11,20,9.70
2017,04,02,11,21,9.60
2017,04,02,11,22,9.60
2017,04,02,11,23,9.60
2017,04,02,11,24,9.70
2017,04,02,11,25,9.70
2017,04,02,11,26,9.70
2017,04,02,11,27,9.80
2017,04,02,11,28,9.80
2017,04,02,11,29,9.80
2017,04,02,11,30,9.80
2017,04,02,11,31,9.80
2017,04,02,11,32,9.80
2017,04,02,11,33,9.80
2017,04,02,11,34,9.90
2017,04,02,11,35,9.90
2017,04,02,11,36,10.00
2017,04,02,11,37,10.10
2017,04,02,11,38,10.20
2017,04,02,11,39,10.30
2017,04,02,11,40,10.50
2017,04,02,11,41,10.70
2017,04,02,11,42,10.70
2017,04,02,11,43,10.70
2017,04,02,11,44,10.60
2017,04,02,11,45,10.50
2017,04,02,11,46,10.40
2017,04,02,11,47,10.30
2017,04,02,11,48,10.30
2017,04,02,11,49,10.20
2017,04,02,11,50,10.10
2017,04,02,11,51,10.00
2017,04,02,11,52,10.00
2017,04,02,11,53,10.00
2017,04,02,11,54,10.10
2017,04,02,11,55,10.10
2017,04,02,11,56,10.10
2017,04,02,11,57,10.20
2017,04,02,11,58,10.20
2017,04,02,11,59,10.40
2017,04,02,12,00,10.50
2017,04,02,12,01,10.70
2017,04,02,12,02,10.70
2017,04,02,12,03,10.80
2017,04,02,12,04,10.80
2017,04,02,12,05,10.80
2017,04,02,12,06,10.80
2017,04,02,12,07,10.80
2017,04,02,12,08,10.90
2017,04,02,12,09,10.90
2017,04,02,12,10,10.80
2017,04,02,12,11,10.70
2017,04,02,12,12,10.60
2017,04,02,12,13,10.50
2017,04,02,12,14,10.50
2017,04,02,12,15,10.50
2017,04,02,12,16,10.50
2017,04,02,12,17,10.60
2017,04,02,12,18,10.60
2017,04,02,12,19,10.60
2017,04,02,12,20,10.60
2017,04,02,12,21,10.70
2017,04,02,12,22,10.70
2017,04,02,12,23,10.70
2017,04,02,12,24,10.70
2017,04,02,12,25,10.70
2017,04,02,12,26,10.70
2017,04,02,12,27,10.70
2017,04,02,12,28,10.50
2017,04,02,12,29,10.50
2017,04,02,12,30,10.50
2017,04,02,12,31,10.60
2017,04,02,12,32,10.60
2017,04,02,12,33,10.60
2017,04,02,12,34,10.60
2017,04,02,12,35,10.50
2017,04,02,12,36,10.50
2017,04,02,12,37,10.50
2017,04,02,12,38,10.40
2017,04,02,12,39,10.40
2017,04,02,12,40,10.30
2017,04,02,12,41,10.30
2017,04,02,12,42,10.30
2017,04,02,12,43,10.40
2017,04,02,12,44,10.40
2017,04,02,12,45,10.30
2017,04,02,12,46,10.30
2017,04,02,12,47,10.40
2017,04,02,12,48,10.40
2017,04,02,12,49,10.50
2017,04,02,12,50,10.50
2017,04,02,12,51,10.40
2017,04,02,12,52,10.50
2017,04,02,12,53,10.50
2017,04,02,12,54,10.50
2017,04,02,12,55,10.50
2017,04,02,12,56,10.50
2017,04,02,12,57,10.60
2017,04,02,12,58,10.50
2017,04,02,12,59,10.60
2017,04,02,13,00,10.60
2017,04,02,13,01,10.60
2017,04,02,13,02,10.70
2017,04,02,13,03,10.60
2017,04,02,13,04,10.50
2017,04,02,13,05,10.50
2017,04,02,13,06,10.40
2017,04,02,13,07,10.40
2017,04,02,13,08,10.30
2017,04,02,13,09,10.40
2017,04,02,13,10,10.50
2017,04,02,13,11,10.60
2017,04,02,13,12,10.60
2017,04,02,13,13,10.70
2017,04,02,13,14,10.70
2017,04,02,13,15,10.70
2017,04,02,13,16,10.70
2017,04,02,13,17,10.80
2017,04,02,13,18,10.80
2017,04,02,13,19,10.90
2017,04,02,13,20,11.00
2017,04,02,13,21,11.10
2017,04,02,13,22,11.20
2017,04,02,13,23,11.20
2017,04,02,13,24,11.20
2017,04,02,13,25,11.20
2017,04,02,13,26,11.20
2017,04,02,13,27,11.20
2017,04,02,13,28,11.30
2017,04,02,13,29,11.30
2017,04,02,13,30,11.20
2017,04,02,13,31,11.10
2017,04,02,13,32,10.90
2017,04,02,13,33,10.90
2017,04,02,13,34,10.90
2017,04,02,13,35,11.00
2017,04,02,13,36,11.10
2017,04,02,13,37,11.10
2017,04,02,13,38,11.10
2017,04,02,13,39,11.10
2017,04,02,13,40,11.20
2017,04,02,13,41,11.20
2017,04,02,13,42,11.30
2017,04,02,13,43,11.40
2017,04,02,13,44,11.60
2017,04,02,13,45,11.60
2017,04,02,13,46,11.50
2017,04,02,13,47,11.40
2017,04,02,13,48,11.50
2017,04,02,13,49,11.60
2017,04,02,13,50,11.60
2017,04,02,13,51,11.60
2017,04,02,13,52,11.50
2017,04,02,13,53,11.50
2017,04,02,13,54,11.30
2017,04,02,13,55,11.20
2017,04,02,13,56,11.20
2017,04,02,13,57,11.20
2017,04,02,13,58,11.40
2017,04,02,13,59,11.50
2017,04,02,14,00,11.60
2017,04,02,14,01,11.80
2017,04,02,14,02,11.90
2017,04,02,14,03,11.90
2017,04,02,14,04,11.70
2017,04,02,14,05,11.60
2017,04,02,14,06,11.60
2017,04,02,14,07,11.70
2017,04,02,14,08,11.70
2017,04,02,14,09,11.70
2017,04,02,14,10,11.70
2017,04,02,14,11,11.90
2017,04,02,14,12,12.10
2017,04,02,14,13,12.10
2017,04,02,14,14,12.20
2017,04,02,14,15,12.30
2017,04,02,14,16,12.30
2017,04,02,14,17,12.20
2017,04,02,14,18,12.00
2017,04,02,14,19,11.80
2017,04,02,14,20,11.60
2017,04,02,14,21,11.40
2017,04,02,14,22,11.30
2017,04,02,14,23,11.40
2017,04,02,14,24,11.40
2017,04,02,14,25,11.50
2017,04,02,14,26,11.50
2017,04,02,14,27,11.50
2017,04,02,14,28,11.40
2017,04,02,14,29,11.40
2017,04,02,14,30,11.30
2017,04,02,14,31,11.10
2017,04,02,14,32,10.90
2017,04,02,14,33,10.70
2017,04,02,14,34,10.50
2017,04,02,14,35,10.40
2017,04,02,14,36,10.30
2017,04,02,14,37,10.20
2017,04,02,14,38,10.20
2017,04,02,14,39,10.20
2017,04,02,14,40,10.20
2017,04,02,14,41,10.30
2017,04,02,14,42,10.30
2017,04,02,14,43,10.40
2017,04,02,14,44,10.40
2017,04,02,14,45,10.40
2017,04,02,14,46,10.40
2017,04,02,14,47,10.50
2017,04,02,14,48,10.50
2017,04,02,14,49,10.50
2017,04,02,14,50,10.50
2017,04,02,14,51,10.60
2017,04,02,14,52,10.50
2017,04,02,14,53,10.50
2017,04,02,14,54,10.50
2017,04,02,14,55,10.50
2017,04,02,14,56,10.40
2017,04,02,14,57,10.40
2017,04,02,14,58,10.40
2017,04,02,14,59,10.40
2017,04,02,15,00,10.40
2017,04,02,15,01,10.40
2017,04,02,15,02,10.40
2017,04,02,15,03,10.30
2017,04,02,15,04,10.30
2017,04,02,15,05,10.30
2017,04,02,15,06,10.30
2017,04,02,15,07,10.20
2017,04,02,15,08,10.20
2017,04,02,15,09,10.10
2017,04,02,15,10,10.10
2017,04,02,15,11,10.20
2017,04,02,15,12,10.20
2017,04,02,15,13,10.10
2017,04,02,15,14,10.10
2017,04,02,15,15,10.00
2017,04,02,15,16,9.90
2017,04,02,15,17,9.80
2017,04,02,15,18,9.80
2017,04,02,15,19,9.70
2017,04,02,15,20,9.70
2017,04,02,15,21,9.60
2017,04,02,15,22,9.60
2017,04,02,15,23,9.50
2017,04,02,15,24,9.50
2017,04,02,15,25,9.50
2017,04,02,15,26,9.50
2017,04,02,15,27,9.50
2017,04,02,15,28,9.40
2017,04,02,15,29,9.40
2017,04,02,15,30,9.40
2017,04,02,15,31,9.30
2017,04,02,15,32,9.30
2017,04,02,15,33,9.20
2017,04,02,15,34,9.20
2017,04,02,15,35,9.20
2017,04,02,15,36,9.20
2017,04,02,15,37,9.10
2017,04,02,15,38,9.10
2017,04,02,15,39,9.10
2017,04,02,15,40,9.10
2017,04,02,15,41,9.10
2017,04,02,15,42,9.10
2017,04,02,15,43,9.10
2017,04,02,15,44,9.00
2017,04,02,15,45,9.00
2017,04,02,15,46,9.00
2017,04,02,15,47,8.90
2017,04,02,15,48,8.90
2017,04,02,15,49,8.90
2017,04,02,15,50,8.90
2017,04,02,15,51,8.90
2017,04,02,15,52,8.80
2017,04,02,15,53,8.70
2017,04,02,15,54,8.60
2017,04,02,15,55,8.40
2017,04,02,15,56,8.40
2017,04,02,15,57,8.30
2017,04,02,15,58,8.30
2017,04,02,15,59,8.20
2017,04,02,16,00,8.20
2017,04,02,16,01,8.10
2017,04,02,16,02,8.10
2017,04,02,16,03,8.10
2017,04,02,16,04,8.10
2017,04,02,16,05,8.10
2017,04,02,16,06,8.10
2017,04,02,16,07,8.10
2017,04,02,16,08,8.10
2017,04,02,16,09,8.10
2017,04,02,16,10,8.20
2017,04,02,16,11,8.20
2017,04,02,16,12,8.20
2017,04,02,16,13,8.30
2017,04,02,16,14,8.30
2017,04,02,16,15,8.40
2017,04,02,16,16,8.50
2017,04,02,16,17,8.50
2017,04,02,16,18,8.40
2017,04,02,16,19,8.30
2017,04,02,16,20,8.30
2017,04,02,16,21,8.30
2017,04,02,16,22,8.30
2017,04,02,16,23,8.30
2017,04,02,16,24,8.40
2017,04,02,16,25,8.40
2017,04,02,16,26,8.40
2017,04,02,16,27,8.40
2017,04,02,16,28,8.40
2017,04,02,16,29,8.40
2017,04,02,16,30,8.40
2017,04,02,16,31,8.40
2017,04,02,16,32,8.30
2017,04,02,16,33,8.30
2017,04,02,16,34,8.30
2017,04,02,16,35,8.30
2017,04,02,16,36,8.30
2017,04,02,16,37,8.30
2017,04,02,16,38,8.30
2017,04,02,16,39,8.30
2017,04,02,16,40,8.30
2017,04,02,16,41,8.30
2017,04,02,16,42,8.40
2017,04,02,16,43,8.40
2017,04,02,16,44,8.40
2017,04,02,16,45,8.40
2017,04,02,16,46,8.50
2017,04,02,16,47,8.50
2017,04,02,16,48,8.50
2017,04,02,16,49,8.60
2017,04,02,16,50,8.60
2017,04,02,16,51,8.50
2017,04,02,16,52,8.50
2017,04,02,16,53,8.40
2017,04,02,16,54,8.40
2017,04,02,16,55,8.40
2017,04,02,16,56,8.40
2017,04,02,16,57,8.40
2017,04,02,16,58,8.30
2017,04,02,16,59,8.30
2017,04,02,17,00,8.30
2017,04,02,17,01,8.30
2017,04,02,17,02,8.30
2017,04,02,17,03,8.30
2017,04,02,17,04,8.30
2017,04,02,17,05,8.30
2017,04,02,17,06,8.40
2017,04,02,17,07,8.40
2017,04,02,17,08,8.40
2017,04,02,17,09,8.40
2017,04,02,17,10,8.40
2017,04,02,17,11,8.40
2017,04,02,17,12,8.40
2017,04,02,17,13,8.40
2017,04,02,17,14,8.40
2017,04,02,17,15,8.40
2017,04,02,17,16,8.40
2017,04,02,17,17,8.50
2017,04,02,17,18,8.50
2017,04,02,17,19,8.60
2017,04,02,17,20,8.60
2017,04,02,17,21,8.60
2017,04,02,17,22,8.60
2017,04,02,17,23,8.60
2017,04,02,17,24,8.60
2017,04,02,17,25,8.60
2017,04,02,17,26,8.50
2017,04,02,17,27,8.60
2017,04,02,17,28,8.50
2017,04,02,17,29,8.60
2017,04,02,17,30,8.60
2017,04,02,17,31,8.60
2017,04,02,17,32,8.60
2017,04,02,17,33,8.60
2017,04,02,17,34,8.70
2017,04,02,17,35,8.70
2017,04,02,17,36,8.70
2017,04,02,17,37,8.70
2017,04,02,17,38,8.80
2017,04,02,17,39,8.80
2017,04,02,17,40,8.80
2017,04,02,17,41,8.80
2017,04,02,17,42,8.80
2017,04,02,17,43,8.80
2017,04,02,17,44,8.80
2017,04,02,17,45,8.80
2017,04,02,17,46,8.80
2017,04,02,17,47,8.80
2017,04,02,17,48,8.80
2017,04,02,17,49,8.80
2017,04,02,17,50,8.80
2017,04,02,17,51,8.80
2017,04,02,17,52,8.70
2017,04,02,17,53,8.70
2017,04,02,17,54,8.70
2017,04,02,17,55,8.70